Starlink 36106

operational
NORAD ID: 67018 Int'l Des: 2025-293 Owner: SPXS Country: US Constellation: starlink
LEOCIRCULAR

About Starlink 36106

Description loading...

Live Position

Loading 3D Globe...

Upcoming Passes

Altitude History

Altitude vs Time

uPlot chart will show altitude changes over time

Two-Line Element Set

1 67018C 25293R 25346.10465278 -.00156120 00000+0 -21327-3 0 3466
2 67018 69.9970 325.9241 0004846 266.8555 204.8480 16.06142102 19
Epoch: Dec 12, 2025 • Age: 51 hours

Current Status

Altitude 261.9 km
Velocity 7.75 km/s
Sub-Earth Point 3.86°N, 172.78°W
Launch Date Dec 10, 2025
Age 3 days
Type internet

Technical Details

Classification Payload
Mass 575.00 kg
Dry Mass 530.00 kg
Total Mass 575.00 kg
Length 0.30 m
Diameter 4.10 m
Span 29.00 m
Shape Box + pan
Manufacturer SPXS
Bus Type Starlink V2MO
Phase Status In Orbit
Owner/State SPXS/US

Large Constellations

Loading constellations...